Location: Church Tower
(37.7144°N, 119.6316°W)
Time: 19:17:45
(UTC+00:00)

Cosmos 1452 Rocket - Pass Details

Date: 15 November 2025
Orbit: 763 x 770 km, 74.1° (Epoch: 08 December)

Event Time Altitude Azimuth Distance (km) Brightness Sun altitude
Rises 13:06:37 0° 184° (S) 3,212 6.8 -18.3°
Reaches altitude 10° 13:09:01 10° 180° (S) 2,289 6.1 -17.9°
Maximum altitude 13:14:04 54° 104° (ESE) 926 4.3 -16.9°
Drops below altitude 10° 13:19:09 10° 28° (NNE) 2,303 6.2 -15.9°
Sets 13:21:34 0° 24° (NNE) 3,233 6.9 -15.4°
